Regional Weather Roundup
Issued by NWS

Home | Current Version | Previous Version | Text Only | Print | Product List | Glossary Off
Versions: 1 2 3 4 5 6 7 8 9 10 11 12 13 14 15 16 17 18 19 20 21 22 23 24 25 26 27 28 29 30 31 32 33 34 35 36 37 38 39 40 41 42 43 44 45 46 47 48 49 50

000
ASUS45 KCYS 260110
RWRWY

WYOMING REGIONAL WEATHER ROUNDUP
NATIONAL WEATHER SERVICE CHEYENNE WY
600 PM MST SAT FEB 25 2017

NOTE:  "FAIR" INDICATES FEW OR NO CLOUDS BELOW 12,000 FEET
WITH NO SIGNIFICANT WEATHER AND/OR OBSTRUCTIONS TO VISIBILITY.

WYZ001-260200-
YELLOWSTONE NATIONAL PARK

CITY           SKY/WX    TMP DP  RH WIND       PRES   REMARKS
LK YELLOWSTONE   N/A      6  -1  73 VRB7      29.72S WCI  -6
W YELLOWSTONE  NOT AVBL

$$
WYZ002>013-054>058-071-098>099-260200-
NORTHERN WYOMING

CITY           SKY/WX    TMP DP  RH WIND       PRES   REMARKS
JACKSON        CLOUDY    16  10  79 S13       29.83S WCI   2
CODY           FAIR      23   2  40 W24G37    29.67F WCI   7
GREYBULL       FAIR      31   8  38 W8        29.70S WCI  23
WORLAND        FAIR      28   6  39 CALM      29.69F
SHERIDAN       CLOUDY    28  17  63 SW8       29.69R WCI  20
BUFFALO        FAIR      20   8  60 W3        29.65F
GILLETTE       MOCLDY    22  14  71 W6        29.66S WCI  14
HULETT         LGT SNOW  28  21  74 W7        29.68R WCI  21
NEWCASTLE      FAIR      18  10  73 SE9       29.70F WCI   6

$$
WYZ014>020-022>026-101>103-260200-
CENTRAL WYOMING

CITY           SKY/WX    TMP DP  RH WIND       PRES   REMARKS
BIG PINEY      FAIR       2  -2  83 CALM      29.81S
PINEDALE       FAIR       5   0  78 W3        29.81S
DUBOIS         FAIR      10   0  61 W32G41    29.66S HAZE    WCI -12
LANDER         FAIR      19  -2  39 W6        29.70F WCI  11
RIVERTON       FAIR      18   3  52 SW5       29.70F WCI  11
CASPER         FAIR      16   7  67 SW22G32   29.70F WCI  -2
DOUGLAS        FAIR      18   6  59 W13       29.71F WCI   5

$$
WYZ021-027>030-104>119-260200-
SOUTHERN WYOMING

CITY           SKY/WX    TMP DP  RH WIND       PRES   REMARKS
EVANSTON       LGT SNOW  15   9  76 W17       29.87S WCI  -1
FORT BRIDGER   CLEAR     16  10  79 W15G24    29.87F WCI   1
ROCK SPRINGS   FAIR      15   7  70 W21       29.82F WCI  -2
DIXON            N/A     21   9  60 SW15      29.87S WCI   8
RAWLINS        LGT SNOW  15   7  70 W23G33    29.75F WCI  -3
SARATOGA       FAIR      14   5  67 SW12      29.78F WCI   0
LARAMIE        FAIR      13   1  59 W21G32    29.71S WCI  -5
CHEYENNE       FAIR      18   2  49 W20       29.73F WCI   2
TORRINGTON     FAIR      24   9  52 W17       29.76F WCI  11
PINE BLUFFS    FAIR      21  10  63 W7        29.80S WCI  13

$$



USA.gov is the U.S. government's official web portal to all federal, state and local government web resources and services.